Hourly Data Report for September 28, 2017

All times are specified in Local Standard Time (LST). Add 1 hour to adjust for Daylight Saving Time where and when it is observed.

TORONTO INTL A
ONTARIO

43°40'36.000" N
79°37'50.000" W
173.40 m
6158731
71624
YYZ

Download Data

Hourly Data (September 2017)
Hourly Data Report for September 28, 2017
Temp Definition
°C
Dew Point Temp Definition
°C
Rel Hum Definition
%
Wind Dir Definition
10's deg

Wind Spd Definition
km/h
Visibility Definition
km
Stn Press Definition
kPa
Hmdx Definition


Wind Chill Definition


Weather Definition


TIME
00:00 Legend Double Dagger 14.6 7.5 62 32 21 24.1 99.47     LegendNANA
01:00 Legend Double Dagger 13.9 7.2 64 32 21 24.1 99.49     Mostly Cloudy
02:00 Legend Double Dagger 12.9 7.1 68 32 19 24.1 99.50     LegendNANA
03:00 Legend Double Dagger 13.0 5.8 61 30 25 24.1 99.49     LegendNANA
04:00 Legend Double Dagger 13.0 5.7 61 30 17 24.1 99.57     Mostly Cloudy
05:00 Legend Double Dagger 12.7 5.9 63 31 16 24.1 99.59     LegendNANA
06:00 Legend Double Dagger 12.6 6.2 65 30 18 24.1 99.61     LegendNANA
07:00 Legend Double Dagger 12.8 6.8 66 30 18 24.1 99.65     Mostly Cloudy
08:00 Legend Double Dagger 13.3 7.1 66 34 18 24.1 99.68     LegendNANA
09:00 Legend Double Dagger 13.8 6.2 60 34 14 24.1 99.74     LegendNANA
10:00 Legend Double Dagger 14.7 6.3 57 34 25 24.1 99.76     Mostly Cloudy
11:00 Legend Double Dagger 15.2 5.5 52 32 25 24.1 99.75     LegendNANA
12:00 Legend Double Dagger 15.0 6.4 56 33 19 24.1 99.74     LegendNANA
13:00 Legend Double Dagger 16.8 5.4 46 29 26 24.1 99.67     Mostly Cloudy
14:00 Legend Double Dagger 17.0 4.0 42 33 24 24.1 99.62     LegendNANA
15:00 Legend Double Dagger 17.3 3.5 39 32 20 24.1 99.63     LegendNANA
16:00 Legend Double Dagger 17.1 4.1 42 33 17 24.1 99.65     Mainly Clear
17:00 Legend Double Dagger 15.7 3.8 45 34 20 24.1 99.67     LegendNANA
18:00 Legend Double Dagger 14.3 4.9 53 36 22 24.1 99.68     LegendNANA
19:00 Legend Double Dagger 13.2 5.3 58 1 21 24.1 99.73     Mainly Clear
20:00 Legend Double Dagger 12.6 5.3 61 1 17 24.1 99.78     LegendNANA
21:00 Legend Double Dagger 11.7 5.2 64 36 12 24.1 99.79     LegendNANA
22:00 Legend Double Dagger 11.7 4.8 62 34 9 24.1 99.80     Mainly Clear
23:00 Legend Double Dagger 11.0 4.7 65 34 10 24.1 99.82     LegendNANA

Notes on Data Quality.

Legend

  • E = Estimated
  • M = Missing
  • NA = Not Available
  • ‡ = Partner data that is not subject to review by the National Climate Archives
Date modified: